Other Public Products
Issued by NWS Grand Forks, ND

Home | Current Version | Previous Version | Graphics & Text | Print | Product List | Glossary On
Versions: 1 2 3 4 5 6 7 8 9 10 11 12 13 14 15 16 17 18 19 20 21 22 23 24 25 26 27 28 29 30 31 32 33 34 35 36 37 38 39 40 41 42 43 44 45 46 47 48 49 50
928
FPUS83 KFGF 110831
OPUFGF
PRAIRIE TO PINES WEATHER ROUNDUP
NATIONAL WEATHER SERVICE EASTERN NORTH DAKOTA/GRAND FORKS ND
200 AM CST THU FEB 11 2016

 **SATELLITE DATA USED TO AUGMENT SKY COVER AT AUTOMATED STATIONS**
 *****  WEATHER ACROSS EASTERN NORTH DAKOTA  *****

CITY           SKY/WX    TMP DP  RH WIND       PRES   REMARKS
GRAND FORKS    CLOUDY     3  -3  76 CALM      30.29F
GRAND FORKS AF CLOUDY    -2  -6  82 CALM      30.28F
GRAND CITY NWS NOT AVBL
BUXTON           N/A      2  -1  87 CALM        N/A
DEVILS LAKE    CLOUDY    -2  -6  83 CALM      30.23S
FARGO          PTCLDY     1  -3  83 NE3       30.28F
WAHPETON ARPT  CLOUDY    -2  -6  84 CALM      30.29R
$$

 *****  WEATHER ACROSS CENTRAL AND WESTERN NORTH DAKOTA  *****

CITY           SKY/WX    TMP DP  RH WIND       PRES   REMARKS
JAMESTOWN      CLOUDY     3  -1  83 SE5       30.21F WCI  -6
BISMARCK       CLOUDY    18  11  74 SE5       30.19S WCI  11
MINOT          CLOUDY    14   6  70 CALM      30.17S
MINOT AFB      CLOUDY    11   9  90 S2        30.17F
GARRISON         N/A     14   9  80 CALM      30.16S
WILLISTON      CLOUDY    26  22  84 SE3       30.10F
DICKINSON      CLOUDY    25  22  88 E6        30.04F WCI  18
HETTINGER      CLOUDY    28  23  81 S7        30.09F WCI  21
$$

 *****  OTHER OBSERVATIONS NORTHEAST NORTH DAKOTA  *****

CITY           SKY/WX    TMP DP  RH WIND       PRES   REMARKS
WALHALLA         N/A      0  -2  92 SE3       30.27F
LANGDON        FAIR      -4  -9  77 SW8       30.20S WCI -19
CAVALIER       FAIR       0  -4  85 CALM      30.29S
GRAFTON        FAIR       0  -2  92 CALM      30.32R
CANDO          CLOUDY    -2  -4  92 SE5       30.24S WCI -12
FORT TOTTEN      N/A      2  -2  83 SE3       29.95S
ROLLA          CLOUDY     1   0  92 SW5       30.18F WCI  -8
RUGBY          CLOUDY     7   5  92 CALM      30.21R
 ***** THE ABOVE OBSERVATIONS ARE NON NWS ARE NOT QUALITY
        CONTROLLED AND MAY MIS-REPORT RAIN FOR SNOW...
$$

 *****  OTHER OBSERVATIONS SOUTHEAST NORTH DAKOTA *****

CITY           SKY/WX    TMP DP  RH WIND       PRES   REMARKS
COOPERSTOWN    NOT AVBL
VALLEY CITY    FAIR      -6  -9  84 CALM      30.25F
OAKES          CLOUDY     9   3  78 E5        30.25R WCI   0
GWINNER        FAIR       5   3  92 N5        30.26S WCI  -4
SHEYENNE NWR     N/A     -7 -13  76 CALM      29.95S
BUFFALO          N/A     -1  -5  81 CALM        N/A
WYNDMERE         N/A     -8 -11  84 W5          N/A  WCI -19
 ***** THE ABOVE OBSERVATIONS ARE NON NWS ARE NOT QUALITY
       CONTROLLED AND MAY MIS-REPORT RAIN FOR SNOW...
$$

  *****  WEATHER ACROSS NORTHERN MINNESOTA  *****

CITY           SKY/WX    TMP DP  RH WIND       PRES   REMARKS
FLAG ISLAND    CLOUDY    -8 -11  84 CALM      30.25S
WARROAD        CLOUDY   -11 -17  77 SW3       30.26S
ROSEAU         CLOUDY   -17 -22  76 CALM      30.26F
HALLOCK        CLOUDY    -8 -11  84 CALM      30.29S
THF RVR FALLS  CLOUDY    -6 -29  31 CALM      30.27F
HALSTAD          N/A      2   0  88 CALM        N/A
FOSSTON        PTCLDY   -17 -22  76 CALM      30.25S
BAUDETTE       CLOUDY   -18 -25  70 CALM      30.24S
WASKISH        CLOUDY   -18 -24  76 CALM      30.25S
CROOKSTON      PTCLDY    -2  -6  84 E3        30.30S
$$
  *****  WEATHER ACROSS CENTRAL AND WEST MINNESOTA  *****

CITY           SKY/WX    TMP DP  RH WIND       PRES   REMARKS
BEMIDJI        CLOUDY   -15 -20  80 CALM      30.24R
PARK RAPIDS    CLOUDY   -10 -16  74 CALM      30.22S
WADENA         PTCLDY    -4  -9  77 CALM      30.23S
DETROIT LAKES  PTCLDY     0  -4  85 CALM      30.24S
MOORHEAD       PTCLDY     3  -2  78 CALM      30.28S
FERGUS FALLS   CLOUDY     3   0  85 CALM      30.29S
ELBOW LAKE     FAIR       6   2  86 CALM      30.25F
MORRIS MN      PTCLDY     3   0  85 NW3       30.26R
STAPLES        PTCLDY    -6 -11  77 CALM      30.24S
WHEATON        CLOUDY     3   1  92 CALM      30.30S
$$
  *****  WEATHER ELSEWHERE ACROSS MINNESOTA  *****

CITY           SKY/WX    TMP DP  RH WIND       PRES   REMARKS
DULUTH         CLOUDY    -6 -12  75 N7        30.18F WCI -20
INTRNTL FALLS  CLOUDY   -21 -25  81 CALM      30.23F
ELY            CLOUDY   -26 -33  68 CALM      30.20S
CLOQUET        PTCLDY    -8 -15  71 CALM      30.22R
BRAINERD       CLOUDY   -11 -15  82 CALM      30.25S
HIBBING        PTCLDY   -24 -27  85 NW6       30.22S WCI -40
ALEXANDRIA     CLOUDY     5  -6  60 E6        30.23F WCI  -6
SAINT CLOUD    PTCLDY     3  -5  69 CALM      30.26F
MINNEAPOLIS    PTCLDY     6  -3  66 NW3       30.28S
$$

  *****  WEATHER ACROSS SOUTH DAKOTA  *****

CITY           SKY/WX    TMP DP  RH WIND       PRES   REMARKS
SIOUX FALLS    CLOUDY    13   4  67 E7        30.24F WCI   3
BROOKINGS      CLOUDY    10   7  85 E6        30.20S WCI   1
WATERTOWN      CLOUDY    11   4  73 CALM      30.19F
HURON          CLOUDY    15  10  80 SE5       30.23S WCI   8
SISSETON         N/A     -1  -3  91 N5        30.26S WCI -11
ABERDEEN       CLOUDY    13   7  77 E5        30.24F WCI   5
MITCHELL       CLOUDY    18  12  77 E7        30.24F WCI   9
PIERRE         MOCLDY    20  18  92 E3        30.18F
MOBRIDGE       CLOUDY    18  14  84 E7        30.15F WCI   9
RAPID CITY     MOCLDY    27  25  92 S9        30.08F WCI  18
$$

  *****  SOME WEATHER IN NEARBY STATES *****

CITY           SKY/WX    TMP DP  RH WIND       PRES   REMARKS
GLASGOW MT     CLOUDY    30  25  81 E12       30.02F WCI  20
GREAT FALLS MT CLOUDY    47  28  47 SW14      30.03S
CHEYENNE WY    PTCLDY    40  15  36 W14       30.17F
SCOTTSBLUFF NE CLEAR     30  24  78 NW7       30.13F WCI  23
OMAHA NE       CLOUDY    19  14  81 NE8       30.22R WCI   9
DES MOINES IA  CLOUDY    13   4  67 NE9       30.24R WCI   1
DAVENPORT IA   PTCLDY     8   2  76 N6        30.23R WCI  -2
CHICAGO IL     MOCLDY    11   0  61 NW10      30.17S WCI  -3
EAU CLAIRE WI  PTCLDY    -2 -10  69 CALM      30.25S
LA CROSSE WI   CLEAR      0  -6  76 CALM      30.28R
$$

  *****  SOME NATIONAL WEATHER *****

CITY           SKY/WX    TMP DP  RH WIND       PRES   REMARKS
LA GUARDIA NY  CLOUDY    27  18  69 NW20      29.77R WCI  13
RALEIGH NC     CLEAR     24   5  44 W5        30.09R WCI  18
ATLANTA GA     MOCLDY    31  13  47 NW5       30.15S
NEW ORLEANS LA CLEAR     49  38  65 S10       30.21F
OKLAHOMA CITY  PTCLDY    53  29  39 N15       29.99R
ALBUQUERQUE NM CLEAR     45  21  38 N6        30.31S
SALT LAKE CITY FOG       30  28  92 NW3       30.47R VSB 1
LOS ANGELES CA CLEAR     64  39  39 E3        30.09F
BOISE ID       CLEAR     30  28  92 CALM      30.41F FOG
SEATTLE WA     PTCLDY    46  44  93 NW5       30.30F
$$

*** WEATHER ACROSS MANITOBA...SASKATCHEWAN AND ONTARIO ***
                ***ONTARIO***

CITY           SKY/WX    TMP DP  RH WIND       PRES   REMARKS
GERALDTON      CLEAR    -20 -26  76 W6        30.07S WCI -36
THUNDER BAY    CLEAR     -9 -15  77 SW3       30.23R
SIOUX LOOKOUT  FLURRIES -17 -22  76 CALM      30.16R
TORONTO        PTCLDY     9  -4  56 NW16      29.85R WCI  -9
BIG TROUT LK   FLURRIES -17 -22  76 W8        30.04F WCI -34
PICKLE LAKE    NOT AVBL
DRYDEN         CLOUDY    -9 -13  84 W8        30.17R WCI -26
KENORA         MOCLDY    -4  -9  77 W6        30.20S WCI -16
$$
                *** MANITOBA***

CITY           SKY/WX    TMP DP  RH WIND       PRES   REMARKS
BRANDON        FLURRIES   3   0  85 W3        30.22S
DAUPHIN        CLOUDY     9   1  72 NW5       30.25S WCI   0
ISLAND LAKE    PTCLDY   -17 -22  76 W5        30.15F WCI -29
PILOT MOUND      N/A     -4  -8  84 S3          N/A
THE PAS        CLEAR     -8 -13  77 NW8       30.30S WCI -23
THOMPSON       CLEAR    -18 -24  76 W6        30.20F WCI -33
WINNIPEG       MOCLDY    -4  -9  77 CALM      30.28F
LYNN LAKE      CLEAR    -18 -24  76 NW10      30.22F WCI -39
CHURCHILL      CRYSTALS -20 -27  69 N30G38    30.09S BLWGSNOWWCI -53
GILLAM         CLEAR    -22 -27  76 NW13      30.13S WCI -46
$$
                ***SASKATCHEWAN***

CITY           SKY/WX    TMP DP  RH WIND       PRES   REMARKS
ESTEVAN        CLOUDY    16  10  79 E6        30.14F WCI   7
KINDERSLEY     CLOUDY    19  16  86 E14G21    30.08S WCI   6
LLOYDMINSTER   LGT SNOW  12  10  92 E10       30.12F WCI  -1
PRINCE ALBERT  FLURRIES   7   1  78 E8        30.26F WCI  -6
REGINA         CLOUDY    16  12  86 NE6       30.13F WCI   7
YORKTON        FLURRIES  10   9  92 N9        30.18S WCC1F1C2F2C3F3C4F4C5F5C6F6C7F7C8F8C9F9CaFaCbFbCcFcCdFdCe!



USA.gov is the U.S. government's official web portal to all federal, state and local government web resources and services.